Content
SEND FEEDBACK

Daily
Averages
Monthly
Summary
United States of America

SEELYVILLE, INDIANA


Home > North America > United States > Indiana
Elevation: 554 feet     Latitude: 39 30N     Longitude: 087 18W

WEATHER
 
SELECT A DAY
Number of Records: 207,278;   Date Range: 1/1/95 - 10/24/14
 
SHARE

PRINT THIS DATA

[ ← Previous Day ]
WEATHER ALMANAC - JANUARY 23, 2013
[ Next Day → ]
[ °C ]   °F
Weather ElementAverageHighLow
Temperature22.7 °F32 °F (4:53 pm)12.9 °F (2:53 am)
Dewpoint9.6 °F18 °F (9:53 pm)1 °F (5:53 am)
Humidity58 %75 % (8:53 pm)43 % (1:53 pm)
Barometer30.27 in30.40 in (2:53 am)30.14 in (5:53 pm)
Wind Speed6.2 mph17.3 mph (11:53 pm)
Wind Gust29.9 mph (10:53 pm)
Weather ElementAverage
Visibility10 mi
Wind DirectionSSE (163.6 °)

Weather ElementTotal
Precipitation---
Heating Degree Days42.6 (Base 65)
Averaged from 22 records on January 23, 2013
WEATHER CONDITIONS BREAKOUT
WIND DIRECTION BREAKOUT
WEATHER BY HOUR - JANUARY 23, 2013
[ °C ]   °F
Local TimeTemperatureDewpointHumidityBarometerVisibilityWind DirectionWind SpeedGust SpeedPrecipitationEventsConditions
2:53 AM12.9 °F3.0 °F65 %30.40 in10.0 miCalmScattered Clouds
3:53 AM14.0 °F7.0 °F74 %30.40 in10.0 miCalmOvercast
4:53 AM15.1 °F1.9 °F56 %30.38 in10.0 miCalmOvercast
5:53 AM16.0 °F1.0 °F52 %30.37 in10.0 miCalmOvercast
6:53 AM16.0 °F1.0 °F52 %30.37 in10.0 miCalmOvercast
7:53 AM17.1 °F3.0 °F54 %30.37 in10.0 miSSW (210°)4.6 mphOvercast
8:53 AM17.1 °F3.0 °F54 %30.36 in10.0 miSouth (190°)5.8 mphOvercast
9:53 AM18.0 °F5.0 °F57 %30.36 in10.0 miSouth (190°)6.9 mphOvercast
10:53 AM19.0 °F6.1 °F57 %30.35 in10.0 miSSW (210°)6.9 mphOvercast
11:53 AM21.9 °F6.1 °F51 %30.33 in10.0 miSW (220°)8.1 mphOvercast
12:53 PM26.1 °F8.1 °F47 %30.28 in10.0 miSSW (210°)8.1 mphOvercast
1:53 PM28.9 °F9.0 °F43 %30.22 in10.0 miVariable5.8 mphScattered Clouds
2:53 PM30.0 °F10.9 °F45 %30.19 in10.0 miSSW (210°)10.4 mphMostly Cloudy
3:53 PM30.9 °F15.1 °F52 %30.18 in10.0 miWest (260°)12.7 mph17.3 mphClear
4:53 PM32.0 °F16.0 °F52 %30.15 in10.0 miWSW (250°)12.7 mph18.4 mphClear
5:53 PM30.0 °F17.1 °F59 %30.14 in10.0 miWSW (240°)6.9 mphClear
6:53 PM26.1 °F17.1 °F69 %30.16 in10.0 miWSW (240°)3.5 mphClear
7:53 PM26.1 °F17.1 °F69 %30.16 in10.0 miCalmClear
8:53 PM24.1 °F17.1 °F75 %30.17 in10.0 miWest (260°)4.6 mphClear
9:53 PM27.0 °F18.0 °F69 %30.17 in10.0 miWest (270°)8.1 mphClear
10:53 PM27.0 °F16.0 °F63 %30.20 in10.0 miNW (320°)13.8 mph29.9 mphClear
11:53 PM25.0 °F12.9 °F60 %30.24 in10.0 miNW (320°)17.3 mph25.3 mphClear
Hourly data recorded from KHUF, located miles away from Seelyville, Indiana







STORIES FROM OUR PARTNERS